Flag for Germany Weather past 2 weeks in Achim, Lower Saxony, Germany

Now
46 °F

Clear.


Feels Like: 42 °F
Forecast: 48 / 59 °F
Wind: 8 mph from Southwest

Location: Bremen Airport

Current Time: May 27, 2015 at 4:09:01 AM

Latest Report: May 27, 2015 at 3:20 AM


Visibility: 10 mi

Pressure: 30.18 "Hg

Humidity: 87%

Dew point: 43 °F

Location of AchimLocation

Historic Weather in Achim — Graph

°F

Achim temperature yesterday

Maximum temperature yesterday: 57 °F (at 2:50 PM)
Minimum temperature yesterday: 43 °F (at 5:50 AM)
Average temperature yesterday: 51 °F

Past Weeks' High & Low Weather Summary

 TemperatureHumidityPressure
High72 °F (May 12, 12:20 PM)100% (May 16, 1:50 AM)30.30 "Hg (May 16, 1:50 AM)
Low34 °F (May 16, 5:20 AM)36% (May 25, 4:50 PM)29.59 "Hg (May 18, 7:20 PM)
Average52 °F74%30.03 "Hg
* Reported May 12 2:20 AM — May 27 2:50 AM, Achim, Weather by CustomWeather, © 2015

Note: Actual official high and low records may vary slightly from our data, if they occured in-between our weather recording intervals... More about our weather records

Advertising

Achim weather history for previous 24 hours

 ConditionsComfort  
Time TempWeatherWind HumidityBarometerVisibility
2:50 AM
Wed, May 27
46 °FClear.8 mph87%30.18 "Hg10 mi
2:20 AM48 °FClear.9 mph82%30.18 "Hg10 mi
1:50 AM48 °FPassing clouds.9 mph82%30.18 "HgN/A
1:20 AM48 °FClear.9 mph82%30.18 "Hg10 mi
12:50 AM45 °FPassing clouds.7 mph87%30.18 "HgN/A
12:20 AM46 °FClear.7 mph82%30.18 "Hg10 mi
11:20 PM
Tue, May 26
50 °FPassing clouds.9 mph76%30.18 "HgN/A
10:50 PM48 °FPassing clouds.8 mph82%30.18 "HgN/A
10:20 PM50 °FPartly sunny.9 mph76%30.18 "HgN/A
9:50 PM50 °FPartly sunny.10 mph76%30.18 "HgN/A
9:20 PM50 °FPartly sunny.14 mph76%30.15 "HgN/A
8:50 PM52 °FBroken clouds.14 mph67%30.15 "HgN/A
8:20 PM52 °FBroken clouds.12 mph67%30.15 "HgN/A
7:50 PM52 °FBroken clouds.13 mph67%30.15 "HgN/A
7:20 PM54 °FBroken clouds.13 mph63%30.12 "HgN/A
6:50 PM54 °FSprinkles. Broken clouds.12 mph67%30.12 "HgN/A
6:20 PM52 °FSprinkles. Broken clouds.13 mph77%30.12 "HgN/A
5:50 PM52 °FBroken clouds.8 mph82%30.12 "HgN/A
5:20 PM52 °FSprinkles. Broken clouds.14 mph77%30.12 "HgN/A
4:50 PM55 °FBroken clouds.13 mph63%30.09 "HgN/A
4:20 PM55 °FPartly sunny.17 mph59%30.09 "HgN/A
3:50 PM54 °FPartly sunny.15 mph67%30.09 "HgN/A
3:20 PM55 °FPartly sunny.16 mph63%30.09 "HgN/A
2:50 PM57 °FPartly sunny.15 mph59%30.07 "HgN/A
2:20 PM55 °FPartly sunny.12 mph59%30.07 "HgN/A
1:50 PM54 °FPartly sunny.15 mph67%30.07 "HgN/A
1:20 PM55 °FPartly sunny.12 mph59%30.07 "HgN/A
12:50 PM55 °FScattered clouds.12 mph63%30.07 "HgN/A
12:20 PM52 °FPartly sunny.9 mph72%30.07 "HgN/A
11:50 AM50 °FSprinkles. Broken clouds.16 mph76%30.07 "HgN/A
11:20 AM54 °FScattered clouds.14 mph63%30.04 "HgN/A
10:50 AM54 °FScattered clouds.14 mph67%30.04 "HgN/A
10:20 AM54 °FScattered clouds.14 mph63%30.04 "HgN/A
9:50 AM52 °FBroken clouds.12 mph67%30.04 "HgN/A
9:20 AM52 °FBroken clouds.13 mph67%30.04 "HgN/A
8:50 AM52 °FPartly sunny.10 mph72%30.04 "HgN/A
8:20 AM50 °FScattered clouds.10 mph76%30.04 "HgN/A
7:50 AM50 °FScattered clouds.8 mph82%30.04 "HgN/A
7:20 AM46 °FScattered clouds.7 mph93%30.01 "HgN/A
6:50 AM46 °FScattered clouds.6 mph93%30.01 "HgN/A
6:20 AM45 °FScattered clouds.3 mph93%30.01 "HgN/A
5:50 AM43 °FPassing clouds.5 mph93%30.01 "HgN/A
5:20 AM45 °FPassing clouds.5 mph93%30.01 "HgN/A
4:50 AM46 °FPassing clouds.8 mph93%30.01 "HgN/A
4:20 AM46 °FPassing clouds.7 mph93%30.01 "HgN/A
Weather by CustomWeather, © 2015

See weather overviewHow to use our weather pages